Gunnison, CO

4:34 PM MST on February 27, 2017 (GMT -0700)
Gunnison County

Weather History for KGUC - December, 2012

Change the Weather History Date:

Monday, December 24, 2012

  Actual Average Record
Temperature  
Mean Temperature 16 °F -  
Max Temperature 23 °F 22 °F 37 °F (2013)
Min Temperature 10 °F 0 °F -18 °F (2001)
Degree Days  
Heating Degree Days 48    
Moisture  
Dew Point 13 °F    
Average Humidity 82    
Maximum Humidity 100    
Minimum Humidity 62    
Precipitation  
Precipitation 0.07 in - - ()
Sea Level Pressure  
Sea Level Pressure 29.82 in    
Wind  
Wind Speed 1 mph (WNW)    
Max Wind Speed 6 mph    
Max Gust Speed -    
Visibility 6 miles    
Events      
Averages and records for this station are not official NWS values.
T = Trace of Precipitation, MM = Missing Value Source: NWS Daily Summary

Daily Weather History Graph

Daily Weather History Graph

Search for Another Location

Airport or City:

Trip Planner

Search our weather history database for the weather conditions in past years. The results will help you decide how hot, cold, wet, or windy it might be!

Date:

Astronomy

Dec. 24, 2012 Rise Set
Actual Time 7:23 AM MST 4:52 PM MST
Civil Twilight 6:53 AM MST 5:21 PM MST
Nautical Twilight 6:20 AM MST 5:55 PM MST
Astronomical Twilight 5:47 AM MST 6:27 PM MST
Moon 2:20 PM MST (12/24) 4:05 AM MST (12/24)
Length of Visible Light 10h 28m
Length of Day
9h 28m
Waxing Gibbous, 89% of the Moon is Illuminated
Dec 24
Waxing Gibbous
Dec 28
Full
Jan 4
Last Quarter
Jan 11
New
Jan 18
First Quarter

Hourly Weather History & Observations

Time (MST) Temp. Windchill Dew Point Humidity Pressure Visibility Wind Dir Wind Speed Gust Speed Precip Events Conditions
12:15 AM 10.4 °F 2.2 °F 5.0 °F 79% 30.06 in 10.0 mi NNE 4.6 mph - N/A   Overcast
12:35 AM 12.2 °F - 8.6 °F 85% 30.06 in 10.0 mi Calm Calm - N/A   Overcast
12:55 AM 12.2 °F 6.1 °F 1.4 °F 62% 30.03 in 10.0 mi ENE 3.5 mph - N/A   Overcast
1:15 AM 12.2 °F - 8.6 °F 85% 30.01 in 10.0 mi Calm Calm - N/A   Mostly Cloudy
1:35 AM 12.2 °F - 5.0 °F 73% 30.01 in 10.0 mi Calm Calm - N/A   Mostly Cloudy
1:55 AM 12.2 °F - 8.6 °F 85% 30.01 in 10.0 mi Calm Calm - N/A   Overcast
2:15 AM 12.2 °F - 6.8 °F 79% 30.00 in 10.0 mi Calm Calm - N/A   Mostly Cloudy
2:35 AM 12.2 °F - 3.2 °F 67% 30.00 in 10.0 mi Calm Calm - N/A   Partly Cloudy
2:55 AM 12.2 °F - 6.8 °F 79% 30.00 in 10.0 mi Calm Calm - N/A   Mostly Cloudy
3:15 AM 10.4 °F - 1.4 °F 67% 30.00 in 10.0 mi Calm Calm - N/A   Overcast
3:35 AM 10.4 °F 4.0 °F 8.6 °F 92% 30.00 in 10.0 mi South 3.5 mph - N/A   Overcast
3:55 AM 10.4 °F - 8.6 °F 92% 29.98 in 10.0 mi Calm Calm - N/A   Overcast
4:15 AM 12.2 °F - 3.2 °F 67% 29.96 in 10.0 mi Calm Calm - N/A   Overcast
4:35 AM 12.2 °F - 6.8 °F 79% 29.96 in 10.0 mi Calm Calm - N/A   Overcast
4:55 AM 12.2 °F 6.1 °F 10.4 °F 92% 29.94 in 10.0 mi NNE 3.5 mph - N/A   Overcast
5:35 AM 14.0 °F - 6.8 °F 73% 29.94 in 3.0 mi Calm Calm - N/A   Overcast
5:55 AM 12.2 °F 2.9 °F 8.6 °F 85% 29.93 in 1.8 mi NE 5.8 mph - N/A   Overcast
6:15 AM 14.0 °F 8.2 °F 10.4 °F 86% 29.93 in 2.0 mi NNE 3.5 mph - N/A   Overcast
6:35 AM 14.0 °F 5.1 °F 8.6 °F 79% 29.92 in 2.0 mi NNE 5.8 mph - N/A   Overcast
6:55 AM 14.0 °F 8.2 °F 8.6 °F 79% 29.93 in 4.0 mi North 3.5 mph - N/A   Overcast
7:35 AM 14.0 °F - 12.2 °F 93% 29.91 in 5.0 mi Calm Calm - N/A   Overcast
7:55 AM 15.8 °F - 8.6 °F 73% 29.91 in 10.0 mi Calm Calm - N/A   Mostly Cloudy
8:15 AM 14.0 °F - 5.0 °F 67% 29.90 in 10.0 mi Calm Calm - N/A   Overcast
8:35 AM 15.8 °F - 10.4 °F 79% 29.90 in 10.0 mi Calm Calm - N/A   Overcast
8:55 AM 15.8 °F - 12.2 °F 86% 29.90 in 5.0 mi Calm Calm - N/A   Mostly Cloudy
9:15 AM 15.8 °F - 10.4 °F 79% 29.90 in 1.2 mi Calm Calm - N/A   Overcast
9:35 AM 15.8 °F - 10.4 °F 79% 29.89 in 1.2 mi Calm Calm - N/A   Overcast
10:15 AM 17.6 °F - 12.2 °F 79% 29.88 in 4.0 mi Calm Calm - N/A   Mostly Cloudy
10:35 AM 17.6 °F - 10.4 °F 73% 29.88 in 7.0 mi Calm Calm - N/A   Overcast
10:55 AM 17.6 °F - 10.4 °F 73% 29.86 in 0.5 mi Calm Calm - N/A   Overcast
11:15 AM 17.6 °F - 15.8 °F 93% 29.84 in 0.8 mi Calm Calm - N/A   Overcast
11:35 AM 17.6 °F - 15.8 °F 93% 29.83 in 1.2 mi Calm Calm - N/A   Overcast
11:55 AM 19.4 °F - 15.8 °F 86% 29.80 in 0.8 mi Calm Calm - 0.02 in   Overcast
12:15 PM 19.4 °F - 12.2 °F 74% 29.77 in 3.0 mi Calm Calm - N/A   Mostly Cloudy
12:35 PM 19.4 °F - 14.0 °F 80% 29.76 in 8.0 mi Calm Calm - N/A   Mostly Cloudy
12:55 PM 21.2 °F 14.9 °F 12.2 °F 68% 29.75 in 5.0 mi South 4.6 mph - N/A   Mostly Cloudy
1:15 PM 21.2 °F - 14.0 °F 74% 29.74 in 4.0 mi Calm Calm - N/A   Overcast
1:35 PM 21.2 °F - 15.8 °F 80% 29.72 in 0.5 mi Calm Calm - 0.01 in   Overcast
1:55 PM 23.0 °F - 17.6 °F 80% 29.70 in 2.0 mi Calm Calm - 0.01 in   Overcast
2:15 PM 23.0 °F - 17.6 °F 80% 29.70 in 8.0 mi Calm Calm - 0.01 in   Overcast
2:35 PM 23.0 °F 18.4 °F 17.6 °F 80% 29.70 in 10.0 mi SW 3.5 mph - 0.01 in   Mostly Cloudy
2:55 PM 23.0 °F 17.0 °F 19.4 °F 86% 29.69 in 1.5 mi West 4.6 mph - 0.01 in   Overcast
3:15 PM 23.0 °F 15.8 °F 19.4 °F 86% 29.69 in 1.8 mi West 5.8 mph - N/A   Overcast
3:35 PM 23.0 °F 17.0 °F 19.4 °F 86% 29.69 in 1.8 mi SW 4.6 mph - N/A   Overcast
4:15 PM 23.0 °F 17.0 °F 19.4 °F 86% 29.68 in 1.8 mi West 4.6 mph - N/A   Overcast
4:35 PM 21.2 °F 14.9 °F 19.4 °F 93% 29.68 in 2.0 mi WSW 4.6 mph - N/A   Overcast
5:15 PM 23.0 °F - 19.4 °F 86% 29.67 in 0.8 mi Calm Calm - N/A   Overcast
5:35 PM 21.2 °F - 19.4 °F 93% 29.67 in 3.0 mi Calm Calm - N/A   Mostly Cloudy
5:55 PM 21.2 °F - 19.4 °F 93% 29.67 in 6.0 mi Calm Calm - N/A   Overcast
6:15 PM 23.0 °F - 19.4 °F 86% 29.68 in 1.2 mi Calm Calm - N/A   Overcast
6:35 PM 21.2 °F - 19.4 °F 93% 29.68 in 2.5 mi Calm Calm - N/A   Overcast
6:55 PM 21.2 °F - 19.4 °F 93% 29.68 in 3.0 mi Calm Calm - 0.02 in   Overcast
7:15 PM 21.2 °F - 19.4 °F 93% 29.68 in 5.0 mi Calm Calm - N/A   Overcast
7:35 PM 19.4 °F - 17.6 °F 93% 29.68 in 4.0 mi Calm Calm - N/A   Overcast
8:15 PM 19.4 °F - 14.0 °F 80% 29.68 in 6.0 mi Calm Calm - N/A   Scattered Clouds
8:35 PM 17.6 °F - 8.6 °F 68% 29.69 in 7.0 mi Calm Calm - N/A   Mostly Cloudy
9:15 PM 17.6 °F - 8.6 °F 68% 29.70 in 8.0 mi Calm Calm - N/A   Overcast
9:35 PM 17.6 °F - 12.2 °F 79% 29.70 in 10.0 mi Calm Calm - N/A   Overcast
9:55 PM 17.6 °F - 15.8 °F 93% 29.71 in 6.0 mi Calm Calm - N/A   Overcast
10:15 PM 19.4 °F - 19.4 °F 100% 29.72 in 3.0 mi Calm Calm - N/A   Overcast
10:35 PM 19.4 °F - 19.4 °F 100% 29.72 in 1.5 mi Calm Calm - N/A   Overcast
10:55 PM 19.4 °F - 19.4 °F 100% 29.73 in 2.0 mi Calm Calm - 0.01 in   Overcast
11:15 PM 19.4 °F - 17.6 °F 93% 29.73 in 2.5 mi Calm Calm - N/A   Overcast
11:35 PM 17.6 °F 12.3 °F 12.2 °F 79% 29.74 in 5.0 mi West 3.5 mph - N/A   Overcast
11:55 PM 17.6 °F 12.3 °F 12.2 °F 79% 29.74 in 9.0 mi WSW 3.5 mph - N/A   Overcast